Time,TemperatureF,DewpointF,PressureIn,WindDirection,WindDirectionDegrees,WindSpeedMPH,WindSpeedGustMPH,Humidity,HourlyPrecipIn,Conditions,Clouds,dailyrainin,SoftwareType,DateUTC
2013-05-27 00:03:00,80.0,-99.9,30.10,East,82,13.0,19.0,-999,-99.99,,,-99.99,,2013-05-27 04:03:00,
2013-05-27 00:12:00,80.0,-99.9,30.10,ENE,74,14.0,21.0,-999,-99.99,,,-99.99,,2013-05-27 04:12:00,
2013-05-27 00:23:00,80.0,-99.9,30.11,ENE,77,15.0,21.0,-999,-99.99,,,-99.99,,2013-05-27 04:23:00,
2013-05-27 00:33:00,80.0,-99.9,30.10,ENE,77,15.0,22.0,-999,-99.99,,,-99.99,,2013-05-27 04:33:00,
2013-05-27 00:43:00,80.0,-99.9,30.11,ENE,78,15.0,21.0,-999,-99.99,,,-99.99,,2013-05-27 04:43:00,
2013-05-27 00:53:00,80.0,-99.9,30.11,East,82,13.0,18.0,-999,-99.99,,,-99.99,,2013-05-27 04:53:00,
2013-05-27 01:02:00,80.0,-99.9,30.10,ENE,76,14.0,19.0,-999,-99.99,,,-99.99,,2013-05-27 05:02:00,
2013-05-27 01:12:00,80.0,-99.9,30.11,ENE,74,12.0,17.0,-999,-99.99,,,-99.99,,2013-05-27 05:12:00,
2013-05-27 01:22:00,80.0,-99.9,30.11,ENE,76,14.0,18.0,-999,-99.99,,,-99.99,,2013-05-27 05:22:00,
2013-05-27 01:32:00,80.0,-99.9,30.10,ENE,74,15.0,19.0,-999,-99.99,,,-99.99,,2013-05-27 05:32:00,
2013-05-27 01:42:00,80.0,-99.9,30.10,ENE,74,14.0,22.0,-999,-99.99,,,-99.99,,2013-05-27 05:42:00,
2013-05-27 01:52:00,80.0,-99.9,30.09,ENE,78,13.0,19.0,-999,-99.99,,,-99.99,,2013-05-27 05:52:00,
2013-05-27 02:02:00,79.0,-99.9,30.10,East,101,11.0,18.0,-999,-99.99,,,-99.99,,2013-05-27 06:02:00,
2013-05-27 02:11:00,79.0,-99.9,30.09,East,87,12.0,20.0,-999,-99.99,,,-99.99,,2013-05-27 06:11:00,
2013-05-27 02:22:00,78.0,-99.9,30.09,East,85,13.0,21.0,-999,-99.99,,,-99.99,,2013-05-27 06:22:00,
2013-05-27 02:32:00,78.0,-99.9,30.08,East,82,12.0,15.0,-999,-99.99,,,-99.99,,2013-05-27 06:32:00,
2013-05-27 02:42:00,77.0,-99.9,30.08,ENE,77,12.0,16.0,-999,-99.99,,,-99.99,,2013-05-27 06:42:00,
2013-05-27 02:52:00,78.0,-99.9,30.08,ENE,67,13.0,17.0,-999,-99.99,,,-99.99,,2013-05-27 06:52:00,
2013-05-27 03:02:00,78.0,-99.9,30.07,ENE,58,13.0,17.0,-999,-99.99,,,-99.99,,2013-05-27 07:02:00,
2013-05-27 03:11:00,77.0,-99.9,30.06,NE,46,14.0,17.0,-999,-99.99,,,-99.99,,2013-05-27 07:11:00,
2013-05-27 03:22:00,77.0,-99.9,30.06,NE,40,11.0,13.0,-999,-99.99,,,-99.99,,2013-05-27 07:22:00,
2013-05-27 03:32:00,78.0,-99.9,30.06,ENE,64,9.0,11.0,-999,-99.99,,,-99.99,,2013-05-27 07:32:00,
2013-05-27 03:42:00,79.0,-99.9,30.05,ENE,76,7.0,9.0,-999,-99.99,,,-99.99,,2013-05-27 07:42:00,
2013-05-27 03:53:00,78.0,-99.9,30.05,East,100,8.0,14.0,-999,-99.99,,,-99.99,,2013-05-27 07:53:00,
2013-05-27 04:02:00,79.0,-99.9,30.05,East,86,7.0,10.0,-999,-99.99,,,-99.99,,2013-05-27 08:02:00,
2013-05-27 04:12:00,78.0,-99.9,30.04,East,88,11.0,17.0,-999,-99.99,,,-99.99,,2013-05-27 08:12:00,
2013-05-27 04:22:00,78.0,-99.9,30.05,East,91,8.0,15.0,-999,-99.99,,,-99.99,,2013-05-27 08:22:00,
2013-05-27 04:33:00,78.0,-99.9,30.05,East,80,11.0,15.0,-999,-99.99,,,-99.99,,2013-05-27 08:33:00,
2013-05-27 04:42:00,78.0,-99.9,30.04,East,87,9.0,14.0,-999,-99.99,,,-99.99,,2013-05-27 08:42:00,
2013-05-27 04:52:00,79.0,-99.9,30.04,East,94,9.0,17.0,-999,-99.99,,,-99.99,,2013-05-27 08:52:00,
2013-05-27 05:02:00,79.0,-99.9,30.04,East,92,9.0,15.0,-999,-99.99,,,-99.99,,2013-05-27 09:02:00,
2013-05-27 05:11:00,79.0,-99.9,30.04,East,86,9.0,15.0,-999,-99.99,,,-99.99,,2013-05-27 09:11:00,
2013-05-27 05:22:00,79.0,-99.9,30.04,East,86,8.0,13.0,-999,-99.99,,,-99.99,,2013-05-27 09:22:00,
2013-05-27 05:33:00,79.0,-99.9,30.04,East,87,7.0,13.0,-999,-99.99,,,-99.99,,2013-05-27 09:33:00,
2013-05-27 05:43:00,79.0,-99.9,30.04,East,89,7.0,14.0,-999,-99.99,,,-99.99,,2013-05-27 09:43:00,
2013-05-27 05:53:00,79.0,-99.9,30.04,East,81,10.0,15.0,-999,-99.99,,,-99.99,,2013-05-27 09:53:00,
2013-05-27 06:03:00,79.0,-99.9,30.04,East,101,10.0,17.0,-999,-99.99,,,-99.99,,2013-05-27 10:03:00,
2013-05-27 06:12:00,79.0,-99.9,30.04,East,92,12.0,18.0,-999,-99.99,,,-99.99,,2013-05-27 10:12:00,
2013-05-27 06:23:00,79.0,-99.9,30.04,ESE,111,10.0,15.0,-999,-99.99,,,-99.99,,2013-05-27 10:23:00,
2013-05-27 06:32:00,79.0,-99.9,30.05,ESE,104,10.0,14.0,-999,-99.99,,,-99.99,,2013-05-27 10:32:00,
2013-05-27 06:42:00,76.0,-99.9,30.05,SE,128,14.0,21.0,-999,-99.99,,,-99.99,,2013-05-27 10:42:00,
2013-05-27 06:53:00,75.0,-99.9,30.05,SE,125,9.0,18.0,-999,-99.99,,,-99.99,,2013-05-27 10:53:00,
2013-05-27 07:02:00,75.0,-99.9,30.05,SE,138,3.0,6.0,-999,-99.99,,,-99.99,,2013-05-27 11:02:00,
2013-05-27 07:12:00,75.0,-99.9,30.05,WNW,292,1.0,2.0,-999,-99.99,,,-99.99,,2013-05-27 11:12:00,
2013-05-27 07:22:00,76.0,-99.9,30.05,East,98,1.0,2.0,-999,-99.99,,,-99.99,,2013-05-27 11:22:00,
2013-05-27 07:32:00,76.0,-99.9,30.05,SE,136,3.0,4.0,-999,-99.99,,,-99.99,,2013-05-27 11:32:00,
2013-05-27 07:42:00,76.0,-99.9,30.06,SE,124,5.0,8.0,-999,-99.99,,,-99.99,,2013-05-27 11:42:00,
2013-05-27 07:52:00,77.0,-99.9,30.06,East,97,5.0,10.0,-999,-99.99,,,-99.99,,2013-05-27 11:52:00,
2013-05-27 08:02:00,75.0,-99.9,30.06,SE,128,8.0,17.0,-999,-99.99,,,-99.99,,2013-05-27 12:02:00,
2013-05-27 08:12:00,73.0,-99.9,30.06,East,80,9.0,19.0,-999,-99.99,,,-99.99,,2013-05-27 12:12:00,
2013-05-27 08:22:00,75.0,-99.9,30.06,East,79,7.0,12.0,-999,-99.99,,,-99.99,,2013-05-27 12:22:00,
2013-05-27 08:32:00,76.0,-99.9,30.06,East,98,7.0,11.0,-999,-99.99,,,-99.99,,2013-05-27 12:32:00,
2013-05-27 08:42:00,73.0,-99.9,30.07,ESE,104,6.0,19.0,-999,-99.99,,,-99.99,,2013-05-27 12:42:00,
2013-05-27 08:52:00,74.0,-99.9,30.06,ESE,112,7.0,12.0,-999,-99.99,,,-99.99,,2013-05-27 12:52:00,
2013-05-27 09:02:00,75.0,-99.9,30.06,ENE,75,3.0,5.0,-999,-99.99,,,-99.99,,2013-05-27 13:02:00,
2013-05-27 09:11:00,77.0,-99.9,30.06,East,92,9.0,12.0,-999,-99.99,,,-99.99,,2013-05-27 13:11:00,
2013-05-27 09:22:00,78.0,-99.9,30.06,East,94,10.0,16.0,-999,-99.99,,,-99.99,,2013-05-27 13:22:00,
2013-05-27 09:32:00,79.0,-99.9,30.06,East,90,11.0,16.0,-999,-99.99,,,-99.99,,2013-05-27 13:32:00,
2013-05-27 09:42:00,80.0,-99.9,30.07,East,94,7.0,14.0,-999,-99.99,,,-99.99,,2013-05-27 13:42:00,
2013-05-27 09:53:00,80.0,-99.9,30.07,East,91,11.0,17.0,-999,-99.99,,,-99.99,,2013-05-27 13:53:00,
2013-05-27 10:02:00,76.0,-99.9,30.09,SE,138,11.0,25.0,-999,-99.99,,,-99.99,,2013-05-27 14:02:00,
2013-05-27 10:11:00,74.0,-99.9,30.08,SSE,157,11.0,17.0,-999,-99.99,,,-99.99,,2013-05-27 14:11:00,
2013-05-27 10:22:00,74.0,-99.9,30.09,SSE,153,13.0,21.0,-999,-99.99,,,-99.99,,2013-05-27 14:22:00,
2013-05-27 10:32:00,71.0,-99.9,30.09,SE,139,16.0,26.0,-999,-99.99,,,-99.99,,2013-05-27 14:32:00,
2013-05-27 10:42:00,71.0,-99.9,30.10,SE,146,12.0,22.0,-999,-99.99,,,-99.99,,2013-05-27 14:42:00,
2013-05-27 10:52:00,72.0,-99.9,30.11,SSE,147,14.0,21.0,-999,-99.99,,,-99.99,,2013-05-27 14:52:00,
2013-05-27 11:02:00,71.0,-99.9,30.11,SSE,155,9.0,13.0,-999,-99.99,,,-99.99,,2013-05-27 15:02:00,
2013-05-27 11:12:00,71.0,-99.9,30.10,South,172,6.0,11.0,-999,-99.99,,,-99.99,,2013-05-27 15:12:00,
2013-05-27 11:22:00,72.0,-99.9,30.09,SSW,195,5.0,8.0,-999,-99.99,,,-99.99,,2013-05-27 15:22:00,
2013-05-27 11:33:00,72.0,-99.9,30.09,SE,138,3.0,6.0,-999,-99.99,,,-99.99,,2013-05-27 15:33:00,
2013-05-27 11:43:00,72.0,-99.9,30.09,SE,124,3.0,5.0,-999,-99.99,,,-99.99,,2013-05-27 15:43:00,
2013-05-27 11:53:00,72.0,-99.9,30.09,SSE,147,6.0,10.0,-999,-99.99,,,-99.99,,2013-05-27 15:53:00,
2013-05-27 12:03:00,72.0,-99.9,30.09,South,185,4.0,6.0,-999,-99.99,,,-99.99,,2013-05-27 16:03:00,
2013-05-27 12:12:00,73.0,-99.9,30.09,SSE,150,4.0,9.0,-999,-99.99,,,-99.99,,2013-05-27 16:12:00,
2013-05-27 12:23:00,73.0,-99.9,30.09,SE,137,3.0,5.0,-999,-99.99,,,-99.99,,2013-05-27 16:23:00,
2013-05-27 12:33:00,74.0,-99.9,30.09,SE,130,6.0,8.0,-999,-99.99,,,-99.99,,2013-05-27 16:33:00,
2013-05-27 12:42:00,72.0,-99.9,30.10,SE,130,6.0,9.0,-999,-99.99,,,-99.99,,2013-05-27 16:42:00,
2013-05-27 12:53:00,72.0,-99.9,30.10,South,183,4.0,5.0,-999,-99.99,,,-99.99,,2013-05-27 16:53:00,
2013-05-27 13:02:00,72.0,-99.9,30.09,SSE,156,4.0,6.0,-999,-99.99,,,-99.99,,2013-05-27 17:02:00,
2013-05-27 13:12:00,73.0,-99.9,30.09,East,96,3.0,7.0,-999,-99.99,,,-99.99,,2013-05-27 17:12:00,
2013-05-27 13:22:00,73.0,-99.9,30.09,ESE,119,3.0,4.0,-999,-99.99,,,-99.99,,2013-05-27 17:22:00,
2013-05-27 13:32:00,73.0,-99.9,30.09,East,88,4.0,6.0,-999,-99.99,,,-99.99,,2013-05-27 17:32:00,
2013-05-27 13:43:00,75.0,-99.9,30.09,SSE,153,1.0,3.0,-999,-99.99,,,-99.99,,2013-05-27 17:43:00,
2013-05-27 13:52:00,74.0,-99.9,30.09,ENE,67,2.0,3.0,-999,-99.99,,,-99.99,,2013-05-27 17:52:00,
2013-05-27 14:02:00,74.0,-99.9,30.09,SSE,156,9.0,19.0,-999,-99.99,,,-99.99,,2013-05-27 18:02:00,
2013-05-27 14:12:00,73.0,-99.9,30.09,ESE,122,7.0,12.0,-999,-99.99,,,-99.99,,2013-05-27 18:12:00,
2013-05-27 14:22:00,73.0,-99.9,30.09,East,89,7.0,14.0,-999,-99.99,,,-99.99,,2013-05-27 18:22:00,
2013-05-27 14:32:00,73.0,-99.9,30.08,East,90,6.0,11.0,-999,-99.99,,,-99.99,,2013-05-27 18:32:00,
2013-05-27 14:42:00,75.0,-99.9,30.07,ENE,69,8.0,9.0,-999,-99.99,,,-99.99,,2013-05-27 18:42:00,
2013-05-27 14:52:00,74.0,-99.9,30.06,ENE,71,8.0,11.0,-999,-99.99,,,-99.99,,2013-05-27 18:52:00,
2013-05-27 15:01:00,76.0,-99.9,30.06,East,97,7.0,12.0,-999,-99.99,,,-99.99,,2013-05-27 19:01:00,
2013-05-27 15:11:00,77.0,-99.9,30.05,East,93,7.0,12.0,-999,-99.99,,,-99.99,,2013-05-27 19:11:00,
2013-05-27 15:22:00,78.0,-99.9,30.04,East,91,5.0,11.0,-999,-99.99,,,-99.99,,2013-05-27 19:22:00,
2013-05-27 15:32:00,79.0,-99.9,30.04,East,80,9.0,12.0,-999,-99.99,,,-99.99,,2013-05-27 19:32:00,
2013-05-27 15:42:00,79.0,-99.9,30.04,ENE,72,10.0,13.0,-999,-99.99,,,-99.99,,2013-05-27 19:42:00,
2013-05-27 15:52:00,80.0,-99.9,30.03,East,85,10.0,14.0,-999,-99.99,,,-99.99,,2013-05-27 19:52:00,
2013-05-27 16:02:00,80.0,-99.9,30.03,East,81,9.0,13.0,-999,-99.99,,,-99.99,,2013-05-27 20:02:00,
2013-05-27 16:11:00,80.0,-99.9,30.02,ENE,75,13.0,17.0,-999,-99.99,,,-99.99,,2013-05-27 20:11:00,
2013-05-27 16:22:00,80.0,-99.9,30.02,East,83,15.0,19.0,-999,-99.99,,,-99.99,,2013-05-27 20:22:00,
2013-05-27 16:32:00,80.0,-99.9,30.02,East,80,11.0,16.0,-999,-99.99,,,-99.99,,2013-05-27 20:32:00,
2013-05-27 16:42:00,81.0,-99.9,30.01,East,83,15.0,18.0,-999,-99.99,,,-99.99,,2013-05-27 20:42:00,
2013-05-27 16:53:00,81.0,-99.9,30.01,ENE,77,16.0,21.0,-999,-99.99,,,-99.99,,2013-05-27 20:53:00,
2013-05-27 17:02:00,81.0,-99.9,30.01,ENE,71,18.0,23.0,-999,-99.99,,,-99.99,,2013-05-27 21:02:00,
2013-05-27 17:12:00,81.0,-99.9,30.01,ENE,74,19.0,25.0,-999,-99.99,,,-99.99,,2013-05-27 21:12:00,
2013-05-27 17:22:00,81.0,-99.9,30.01,ENE,72,17.0,20.0,-999,-99.99,,,-99.99,,2013-05-27 21:22:00,
2013-05-27 17:33:00,81.0,-99.9,30.01,ENE,71,18.0,21.0,-999,-99.99,,,-99.99,,2013-05-27 21:33:00,
2013-05-27 17:43:00,81.0,-99.9,30.01,ENE,68,17.0,24.0,-999,-99.99,,,-99.99,,2013-05-27 21:43:00,
2013-05-27 17:53:00,81.0,-99.9,30.00,ENE,71,16.0,23.0,-999,-99.99,,,-99.99,,2013-05-27 21:53:00,
2013-05-27 18:03:00,81.0,-99.9,30.00,East,81,17.0,22.0,-999,-99.99,,,-99.99,,2013-05-27 22:03:00,
2013-05-27 18:13:00,81.0,-99.9,30.00,East,81,15.0,19.0,-999,-99.99,,,-99.99,,2013-05-27 22:13:00,
2013-05-27 18:23:00,81.0,-99.9,30.00,ENE,74,17.0,21.0,-999,-99.99,,,-99.99,,2013-05-27 22:23:00,
2013-05-27 18:33:00,81.0,-99.9,30.00,ENE,77,16.0,23.0,-999,-99.99,,,-99.99,,2013-05-27 22:33:00,
2013-05-27 18:42:00,81.0,-99.9,30.00,ENE,75,20.0,24.0,-999,-99.99,,,-99.99,,2013-05-27 22:42:00,
2013-05-27 18:53:00,81.0,-99.9,30.00,ENE,78,12.0,21.0,-999,-99.99,,,-99.99,,2013-05-27 22:53:00,
2013-05-27 19:02:00,80.0,-99.9,30.01,ESE,106,10.0,19.0,-999,-99.99,,,-99.99,,2013-05-27 23:02:00,
2013-05-27 19:12:00,78.0,-99.9,30.01,ESE,116,9.0,16.0,-999,-99.99,,,-99.99,,2013-05-27 23:12:00,
2013-05-27 19:22:00,77.0,-99.9,30.01,ESE,112,8.0,15.0,-999,-99.99,,,-99.99,,2013-05-27 23:22:00,
2013-05-27 19:32:00,73.0,-99.9,30.03,ESE,108,14.0,26.0,-999,-99.99,,,-99.99,,2013-05-27 23:32:00,
2013-05-27 19:42:00,72.0,-99.9,30.03,ESE,114,12.0,17.0,-999,-99.99,,,-99.99,,2013-05-27 23:42:00,
2013-05-27 19:52:00,73.0,-99.9,30.03,East,89,8.0,12.0,-999,-99.99,,,-99.99,,2013-05-27 23:52:00,
2013-05-27 20:01:00,73.0,-99.9,30.04,East,84,11.0,15.0,-999,-99.99,,,-99.99,,2013-05-28 00:01:00,
2013-05-27 20:12:00,73.0,-99.9,30.03,East,83,13.0,20.0,-999,-99.99,,,-99.99,,2013-05-28 00:12:00,
2013-05-27 20:22:00,73.0,-99.9,30.03,East,84,12.0,22.0,-999,-99.99,,,-99.99,,2013-05-28 00:22:00,
2013-05-27 20:32:00,73.0,-99.9,30.02,East,83,11.0,17.0,-999,-99.99,,,-99.99,,2013-05-28 00:32:00,
2013-05-27 20:42:00,73.0,-99.9,30.01,East,89,8.0,16.0,-999,-99.99,,,-99.99,,2013-05-28 00:42:00,
2013-05-27 20:52:00,73.0,-99.9,30.02,East,96,7.0,16.0,-999,-99.99,,,-99.99,,2013-05-28 00:52:00,
2013-05-27 21:01:00,74.0,-99.9,30.01,ENE,76,16.0,21.0,-999,-99.99,,,-99.99,,2013-05-28 01:01:00,
2013-05-27 21:11:00,74.0,-99.9,30.02,East,81,14.0,19.0,-999,-99.99,,,-99.99,,2013-05-28 01:11:00,
2013-05-27 21:22:00,75.0,-99.9,30.03,East,80,14.0,17.0,-999,-99.99,,,-99.99,,2013-05-28 01:22:00,
2013-05-27 21:32:00,75.0,-99.9,30.03,ENE,78,17.0,23.0,-999,-99.99,,,-99.99,,2013-05-28 01:32:00,
2013-05-27 21:42:00,75.0,-99.9,30.03,East,84,12.0,20.0,-999,-99.99,,,-99.99,,2013-05-28 01:42:00,
2013-05-27 21:52:00,75.0,-99.9,30.02,East,92,11.0,17.0,-999,-99.99,,,-99.99,,2013-05-28 01:52:00,
2013-05-27 22:02:00,75.0,-99.9,30.02,East,95,10.0,18.0,-999,-99.99,,,-99.99,,2013-05-28 02:02:00,
2013-05-27 22:11:00,76.0,-99.9,30.03,East,88,10.0,14.0,-999,-99.99,,,-99.99,,2013-05-28 02:11:00,
2013-05-27 22:22:00,76.0,-99.9,30.04,East,92,11.0,16.0,-999,-99.99,,,-99.99,,2013-05-28 02:22:00,
2013-05-27 22:32:00,77.0,-99.9,30.04,East,98,10.0,16.0,-999,-99.99,,,-99.99,,2013-05-28 02:32:00,
2013-05-27 22:42:00,77.0,-99.9,30.04,East,87,8.0,17.0,-999,-99.99,,,-99.99,,2013-05-28 02:42:00,
2013-05-27 22:52:00,77.0,-99.9,30.04,East,83,11.0,14.0,-999,-99.99,,,-99.99,,2013-05-28 02:52:00,
2013-05-27 23:01:00,78.0,-99.9,30.05,East,83,12.0,17.0,-999,-99.99,,,-99.99,,2013-05-28 03:01:00,
2013-05-27 23:11:00,78.0,-99.9,30.04,East,88,11.0,17.0,-999,-99.99,,,-99.99,,2013-05-28 03:11:00,
2013-05-27 23:22:00,78.0,-99.9,30.05,East,95,9.0,14.0,-999,-99.99,,,-99.99,,2013-05-28 03:22:00,
2013-05-27 23:33:00,78.0,-99.9,30.05,East,89,8.0,14.0,-999,-99.99,,,-99.99,,2013-05-28 03:33:00,
2013-05-27 23:43:00,78.0,-99.9,30.06,East,95,9.0,16.0,-999,-99.99,,,-99.99,,2013-05-28 03:43:00,
2013-05-27 23:53:00,76.0,-99.9,30.06,ESE,120,8.0,23.0,-999,-99.99,,,-99.99,,2013-05-28 03:53:00,